TimeEST,TemperatureF,Dew PointF,Humidity,Sea Level PressureIn,VisibilityMPH,Wind Direction,Wind SpeedMPH,Gust SpeedMPH,PrecipitationIn,Events,Conditions,WindDirDegrees,DateUTC
12:15 AM,32.0,32.0,100,30.43,9.0,Calm,Calm,-,0.00,,Clear,0,2012-12-31 05:15:00
12:35 AM,32.0,32.0,100,30.42,9.0,Calm,Calm,-,0.00,,Clear,0,2012-12-31 05:35:00
12:55 AM,32.0,32.0,100,30.41,10.0,NNE,4.6,-,0.00,,Clear,30,2012-12-31 05:55:00
1:15 AM,32.0,32.0,100,30.40,9.0,Calm,Calm,-,0.00,,Clear,0,2012-12-31 06:15:00
1:35 AM,32.0,32.0,100,30.41,10.0,Calm,Calm,-,0.00,,Clear,0,2012-12-31 06:35:00
1:55 AM,32.0,32.0,100,30.40,9.0,Calm,Calm,-,0.00,,Clear,0,2012-12-31 06:55:00
2:15 AM,32.0,32.0,100,30.41,9.0,Calm,Calm,-,0.00,,Clear,0,2012-12-31 07:15:00
2:35 AM,32.0,32.0,100,30.41,9.0,Calm,Calm,-,0.00,,Clear,0,2012-12-31 07:35:00
2:55 AM,32.0,32.0,100,30.41,9.0,Calm,Calm,-,0.00,,Clear,0,2012-12-31 07:55:00
3:15 AM,32.0,32.0,100,30.40,9.0,Calm,Calm,-,0.00,,Clear,0,2012-12-31 08:15:00
3:35 AM,32.0,32.0,100,30.41,10.0,Calm,Calm,-,0.00,,Clear,0,2012-12-31 08:35:00
3:55 AM,32.0,32.0,100,30.39,7.0,Calm,Calm,-,0.00,,Clear,0,2012-12-31 08:55:00
4:15 AM,32.0,32.0,100,30.41,9.0,Calm,Calm,-,0.00,,Clear,0,2012-12-31 09:15:00
4:35 AM,32.0,32.0,100,30.42,7.0,Calm,Calm,-,0.00,,Clear,0,2012-12-31 09:35:00
4:55 AM,32.0,32.0,100,30.41,7.0,Calm,Calm,-,0.00,,Clear,0,2012-12-31 09:55:00
5:15 AM,32.0,32.0,100,30.42,10.0,NW,3.5,-,0.00,,Clear,310,2012-12-31 10:15:00
5:35 AM,32.0,32.0,100,30.41,4.0,Calm,Calm,-,0.00,,Clear,0,2012-12-31 10:35:00
6:50 AM,32.0,23.0,69,30.42,5.0,North,8.1,-,N/A,,Clear,350,2012-12-31 11:50:00
7:50 AM,33.8,28.4,81,30.43,7.0,NNW,4.6,-,N/A,,Clear,340,2012-12-31 12:50:00
8:50 AM,44.6,37.4,76,30.44,7.0,North,6.9,-,N/A,,Clear,360,2012-12-31 13:50:00
9:50 AM,48.2,33.8,58,30.44,10.0,North,8.1,-,N/A,,Clear,10,2012-12-31 14:50:00
10:50 AM,50.0,33.8,54,30.41,10.0,NE,8.1,-,N/A,,Clear,50,2012-12-31 15:50:00
11:50 AM,53.6,37.4,54,30.38,10.0,Calm,Calm,-,N/A,,Clear,0,2012-12-31 16:50:00
12:50 PM,53.6,37.4,54,30.36,10.0,Calm,Calm,-,N/A,,Clear,0,2012-12-31 17:50:00
1:55 PM,55.4,42.8,63,30.31,10.0,NE,4.6,-,N/A,,Clear,40,2012-12-31 18:55:00
2:50 PM,57.2,42.8,59,30.30,10.0,NE,4.6,-,N/A,,Clear,40,2012-12-31 19:50:00
3:56 PM,55.4,42.8,63,30.28,10.0,NE,3.5,-,N/A,,Clear,50,2012-12-31 20:56:00
4:55 PM,53.6,44.6,72,30.27,10.0,Calm,Calm,-,N/A,,Clear,0,2012-12-31 21:55:00
5:55 PM,50.0,44.6,82,30.27,10.0,Calm,Calm,-,N/A,,Clear,0,2012-12-31 22:55:00
6:50 PM,44.6,44.6,100,30.27,10.0,Calm,Calm,-,N/A,,Clear,0,2012-12-31 23:50:00
7:55 PM,46.4,44.6,93,30.28,10.0,Calm,Calm,-,N/A,,Clear,0,2013-01-01 00:55:00
8:15 PM,44.6,44.6,100,30.28,7.0,Calm,Calm,-,0.00,,Clear,0,2013-01-01 01:15:00
8:35 PM,42.8,42.8,100,30.28,7.0,Calm,Calm,-,0.00,,Clear,0,2013-01-01 01:35:00
8:55 PM,42.8,42.8,100,30.27,7.0,Calm,Calm,-,0.00,,Clear,0,2013-01-01 01:55:00
9:15 PM,42.8,42.8,100,30.27,7.0,Calm,Calm,-,0.00,,Clear,0,2013-01-01 02:15:00
9:35 PM,42.8,42.8,100,30.26,5.0,Calm,Calm,-,0.00,,Scattered Clouds,0,2013-01-01 02:35:00
10:15 PM,44.6,44.6,100,30.27,8.0,Calm,Calm,-,0.00,,Overcast,0,2013-01-01 03:15:00
10:35 PM,46.4,46.4,100,30.27,10.0,Calm,Calm,-,0.00,,Overcast,0,2013-01-01 03:35:00
11:15 PM,46.4,46.4,100,30.25,9.0,Calm,Calm,-,0.00,,Overcast,0,2013-01-01 04:15:00
11:35 PM,48.2,48.2,100,30.24,10.0,South,3.5,-,0.00,,Overcast,190,2013-01-01 04:35:00